Location: Chena
(64.8152°N, 147.9227°W)
Time: 00:55:25
(UTC+00:00)

Vanguard 2 - Pass Details

Date: 12 March 2021
Orbit: 552 x 2938 km, 32.9° (Epoch: 10 April)

Event Time Altitude Azimuth Distance (km) Brightness Sun altitude
Rises 14:35:30 0° 235° (SW) 5,455 - -11.8°
Exits shadow 14:38:54 - 223° (SW) 5,131 11.2 -11.4°
Reaches altitude 10° 14:42:12 10° 210° (SSW) 4,984 11.2 -11.1°
Maximum altitude 14:47:10 13° 190° (S) 5,077 11.4 -10.6°
Drops below altitude 10° 14:52:37 10° 170° (S) 5,546 11.8 -10.0°
Sets 15:01:22 0° 148° (SSE) 6,774 12.6 -9.1°
